sat.trackr.live / text

‹ back to catalog

ONEWEB-0181

NORAD 48230 · 2021-031W

PAYLOAD ACTIVE UNKNOWN

§ Identity

Operator
Country
UK
Launch date
2021-04-25
Launch site
VOSTO
Launch vehicle
Mass (kg)
RCS (m²)

Purposes: comms

External: N2YO · Heavens-Above · Gunter

§ Orbital elements

Epoch: 2026-05-25T02:34:37.009056Z

Period
109.55 min
Inclination
87.8933°
Eccentricity
0.0001697
Mean motion
13.14502270 rev/d
Perigee alt
1,204.5 km
Apogee alt
1,207.1 km
Semi-major
7,583.9 km
B*
2.0388e-4
RAAN
294.3307°
Arg perigee
102.9597°
Mean anomaly
257.1722°
Rev number
24,520

§ Raw data

ONEWEB-01811 48230U 21031W   26145.10737279  .00000088  00000+0  20388-3 0  99972 48230  87.8933 294.3307 0001697 102.9597 257.1722 13.14502270245205

JSON: /api/v1/satellites/48230 · /tle

For live sub-satellite position, see the globe view (requires WebGL).

§ Visibility from observer

Set your observer location to see the next 7 days of passes ≥ 10°. The values pass through the URL so the page stays shareable.

No JS? Fill the form by hand. The geolocation button needs JavaScript.